Location: Oshawa
(43.9000°N, 78.8670°W)
Time: 04:42:52
(UTC-05:00)

Iridium 98 - Visible Passes

Search period start: 19 February 2018 00:00
Search period end: 01 March 2018 00:00
Orbit: 776 x 779 km, 86.4° (Epoch: 18 February)

Date Brightness Start Highest point End Pass type
(mag) Time Alt. Az. Time Alt. Az. Time Alt. Az.
19 Feb 7.1 19:21:00 10° NNE 19:22:55 17° NE 19:22:55 17° NE visible
19 Feb 7.3 21:00:56 10° NNW 21:03:26 27° NNW 21:03:26 27° NNW visible
20 Feb 7.3 18:49:02 10° NE 18:50:13 12° ENE 18:50:13 12° ENE visible
20 Feb 6.3 20:27:14 10° N 20:30:44 43° N 20:30:44 43° N visible
21 Feb 5.8 19:53:47 10° N 19:58:09 48° NE 19:58:09 48° NE visible
21 Feb 7.9 21:35:32 10° NW 21:38:40 19° WNW 21:38:40 19° WNW visible
22 Feb 6.3 19:20:38 10° NNE 19:25:12 30° ENE 19:25:44 29° E visible
22 Feb 7.0 21:01:15 10° NNW 21:05:55 34° W 21:06:17 33° W visible
23 Feb 6.9 18:47:58 10° NNE 18:51:21 17° ENE 18:53:33 14° ESE visible
23 Feb 5.9 20:27:23 10° N 20:32:32 61° W 20:34:07 42° SSW visible
24 Feb 5.4 19:53:47 10° N 19:59:01 75° E 20:02:23 23° S visible
24 Feb 8.3 21:36:31 10° NW 21:39:02 14° WNW 21:41:33 10° WSW visible
25 Feb 5.8 19:20:27 10° N 19:25:24 42° E 19:30:19 10° SSE visible
25 Feb 7.6 21:01:43 10° NNW 21:05:51 24° W 21:09:58 10° SW visible
26 Feb 6.5 18:47:27 10° NNE 18:51:38 24° ENE 18:55:49 10° SE visible
26 Feb 6.6 20:27:37 10° NNW 20:32:32 42° W 20:37:25 10° SSW visible
27 Feb 5.6 19:53:52 10° N 19:59:06 77° W 20:04:19 10° S visible
28 Feb 5.5 19:20:22 10° N 19:25:33 60° E 19:30:42 10° SSE visible
28 Feb 8.2 21:02:25 10° NW 21:05:43 17° WNW 21:09:02 10° WSW visible
